Content
SEND FEEDBACK

Daily
Averages
Monthly
Summary
United States of America

AGAT, GUAM


Home > North America > United States > Guam
Elevation: 364 feet     Latitude: 13 33N     Longitude: 144 50E

WEATHER
 
SELECT A DAY
Number of Records: 209,379;   Date Range: 1/1/95 - 9/21/14
 
SHARE

PRINT THIS DATA

[ ← Previous Day ]
WEATHER ALMANAC - SEPTEMBER 2, 2013
[ Next Day → ]
[ °C ]   °F
Weather ElementAverageHighLow
Temperature81 °F87.1 °F (10:54 am)75 °F (4:54 am)
Dewpoint75.4 °F77 °F (12:05 pm)73.9 °F (3:54 am)
Humidity83.5 %97 % (2:54 am)67 % (9:54 am)
Barometer29.82 in29.87 in (11:11 am)29.74 in (4:54 pm)
Wind Speed3.6 mph12.7 mph (12:07 pm)
Weather ElementAverage
Visibility8.5 mi
Wind DirectionSE (131.5 °)

Weather ElementTotal
Precipitation2.57 in
Cooling Degree Days16.1 (Base 65)
Growing Degree Days31.1 (Base 50)
Averaged from 33 records on September 2, 2013
WEATHER CONDITIONS BREAKOUT
WIND DIRECTION BREAKOUT
WEATHER BY HOUR - SEPTEMBER 2, 2013
[ °C ]   °F
Local TimeTemperatureDewpointHumidityBarometerVisibilityWind DirectionWind SpeedGust SpeedPrecipitationEventsConditions
1:54 AM78.1 °F75.0 °F90 %29.81 in10.0 miCalmClear
2:54 AM75.9 °F75.0 °F97 %29.80 in10.0 miCalmClear
3:54 AM75.9 °F73.9 °F94 %29.80 in10.0 miCalmClear
4:54 AM75.0 °F73.9 °F96 %29.81 in10.0 miCalmClear
5:54 AM77.0 °F75.0 °F94 %29.82 in10.0 miCalmClear
6:54 AM78.1 °F75.9 °F93 %29.83 in10.0 miCalmClear
7:54 AM82.9 °F75.9 °F79 %29.85 in10.0 miCalmClear
8:54 AM84.9 °F75.9 °F74 %29.86 in10.0 miSW (230°)3.5 mphPartly Cloudy
9:54 AM86.0 °F73.9 °F67 %29.86 in10.0 miSW (220°)4.6 mphScattered Clouds
10:54 AM87.1 °F75.0 °F67 %29.86 in10.0 miWNW (290°)6.9 mphMostly Cloudy
11:11 AM84.2 °F75.2 °F74 %29.87 in10.0 miWest (270°)6.9 mphMostly Cloudy
11:45 AM82.4 °F75.2 °F79 %29.86 in10.0 miNNW (340°)5.8 mph0.04 inRainLight Rain
11:54 AM82.9 °F75.0 °F77 %29.83 in10.0 miNorth (350°)4.6 mph0.04 inRainLight Rain
11:59 AM80.6 °F75.2 °F84 %29.86 in3.0 miNE (40°)10.4 mph0.01 inRainRain
12:05 PM80.6 °F77.0 °F89 %29.86 in2.5 miENE (60°)10.4 mph0.12 inRainHeavy Rain
12:07 PM80.6 °F77.0 °F89 %29.86 in2.5 miENE (60°)12.7 mph0.17 inRain-ThunderstormHeavy Thunderstorms and Rain
12:18 PM78.8 °F75.2 °F89 %29.86 in3.0 miNorth (360°)5.8 mph0.27 inRain-ThunderstormThunderstorms and Rain
12:30 PM78.8 °F75.2 °F89 %29.85 in2.0 miNW (310°)6.9 mph0.43 inRain-ThunderstormHeavy Thunderstorms and Rain
12:32 PM78.8 °F75.2 °F89 %29.85 in3.0 miNNW (330°)5.8 mph0.46 inRain-ThunderstormHeavy Thunderstorms and Rain
12:46 PM80.6 °F75.2 °F84 %29.85 in7.0 miNNE (20°)4.6 mph0.51 inRainLight Rain
12:54 PM80.1 °F75.9 °F87 %29.82 in7.0 miCalm0.52 inRain-ThunderstormLight Thunderstorms and Rain
1:54 PM82.0 °F77.0 °F85 %29.80 in10.0 miWSW (250°)4.6 mph0.00 inThunderstormThunderstorm
2:12 PM82.4 °F75.2 °F79 %29.81 in10.0 miSSW (210°)3.5 mphScattered Clouds
2:54 PM82.0 °F77.0 °F85 %29.77 in10.0 miSSW (200°)5.8 mphScattered Clouds
3:54 PM84.9 °F75.0 °F72 %29.75 in10.0 miSW (220°)3.5 mphPartly Cloudy
4:54 PM86.0 °F75.0 °F70 %29.74 in10.0 miWNW (290°)5.8 mphPartly Cloudy
5:54 PM84.0 °F75.0 °F74 %29.76 in10.0 miWNW (290°)5.8 mphPartly Cloudy
6:54 PM82.0 °F75.0 °F79 %29.78 in10.0 miCalmPartly Cloudy
7:54 PM81.0 °F75.0 °F82 %29.79 in10.0 miCalmPartly Cloudy
8:54 PM79.0 °F75.9 °F90 %29.81 in10.0 miCalmPartly Cloudy
9:54 PM81.0 °F75.9 °F85 %29.81 in10.0 miCalmPartly Cloudy
10:54 PM79.0 °F75.9 °F90 %29.83 in10.0 miCalmPartly Cloudy
11:54 PM80.1 °F75.0 °F85 %29.81 in10.0 miCalmPartly Cloudy
Hourly data recorded from PGUM, located miles away from Agat, Guam







STORIES FROM OUR PARTNERS